Total_Precipitation_Accumulation
0.00 0.01 0.09 0.18 0.33 0.65 0.77 0.44 0.28 0.19 0.22 0.35 0.33 0.25 0.25 0.31 0.34 0.47 0.16 0.05 0.02 0.02 0.02 0.03 0.05 0.05 0.05 0.07 0.08 0.09 0.08 0.08 0.07 0.06 0.05 0.04 0.04 0.03 0.03 0.03 0.03 0.03 0.03 0.03 0.04 0.04 0.03 0.03 0.03
0.00 0.02 0.10 0.21 0.44 0.99 0.79 0.34 0.19 0.16 0.27 0.36 0.28 0.20 0.21 0.21 0.20 0.13 0.08 0.06 0.03 0.02 0.02 0.01 0.05 0.05 0.05 0.07 0.07 0.09 0.09 0.09 0.09 0.08 0.06 0.06 0.05 0.05 0.04 0.04 0.03 0.04 0.04 0.04 0.04 0.04 0.03 0.02 0.02
0.00 0.02 0.11 0.20 0.41 0.77 0.42 0.18 0.13 0.16 0.31 0.36 0.27 0.23 0.23 0.23 0.22 0.15 0.07 0.07 0.06 0.03 0.02 0.03 0.04 0.04 0.05 0.05 0.07 0.08 0.09 0.10 0.10 0.09 0.06 0.07 0.07 0.07 0.07 0.05 0.04 0.04 0.04 0.04 0.04 0.03 0.03 0.03 0.03
0.01 0.03 0.10 0.18 0.36 0.45 0.24 0.13 0.11 0.17 0.30 0.28 0.24 0.28 0.26 0.23 0.14 0.13 0.08 0.06 0.07 0.05 0.04 0.04 0.05 0.04 0.05 0.06 0.07 0.08 0.10 0.11 0.11 0.08 0.08 0.08 0.08 0.08 0.07 0.05 0.05 0.05 0.05 0.05 0.05 0.04 0.03 0.03 0.03
0.01 0.05 0.11 0.19 0.28 0.25 0.18 0.14 0.14 0.15 0.17 0.25 0.29 0.36 0.28 0.19 0.17 0.23 0.22 0.14 0.07 0.07 0.09 0.08 0.07 0.06 0.07 0.07 0.07 0.09 0.09 0.09 0.10 0.09 0.09 0.08 0.08 0.07 0.07 0.06 0.06 0.06 0.05 0.06 0.07 0.06 0.04 0.03 0.03
0.01 0.04 0.08 0.10 0.12 0.12 0.14 0.13 0.12 0.14 0.19 0.30 0.37 0.35 0.32 0.23 0.25 0.38 0.34 0.22 0.14 0.13 0.15 0.15 0.13 0.12 0.11 0.09 0.09 0.10 0.11 0.11 0.11 0.11 0.10 0.10 0.10 0.09 0.09 0.09 0.08 0.08 0.08 0.07 0.07 0.08 0.07 0.06 0.05
0.01 0.01 0.03 0.04 0.05 0.10 0.10 0.08 0.11 0.14 0.27 0.36 0.40 0.44 0.43 0.44 0.39 0.37 0.37 0.33 0.24 0.29 0.41 0.33 0.19 0.16 0.17 0.16 0.15 0.14 0.14 0.15 0.15 0.15 0.13 0.13 0.13 0.13 0.13 0.14 0.14 0.15 0.16 0.16 0.11 0.09 0.11 0.10 0.09
0.00 0.00 0.01 0.01 0.01 0.04 0.04 0.05 0.10 0.15 0.23 0.38 0.46 0.58 0.73 0.68 0.57 0.44 0.43 0.44 0.32 0.33 0.41 0.41 0.26 0.21 0.17 0.16 0.17 0.18 0.19 0.20 0.18 0.17 0.17 0.16 0.15 0.18 0.20 0.21 0.27 0.28 0.32 0.32 0.26 0.20 0.19 0.20 0.18
0.00 0.00 0.00 0.00 0.01 0.01 0.01 0.03 0.07 0.14 0.22 0.30 0.48 0.64 0.58 0.51 0.68 0.61 0.57 0.58 0.54 0.44 0.46 0.44 0.27 0.22 0.21 0.20 0.20 0.24 0.25 0.25 0.23 0.25 0.23 0.25 0.30 0.41 0.55 0.49 0.59 0.55 0.58 0.56 0.52 0.47 0.47 0.49 0.36
0.00 0.00 0.00 0.00 0.00 0.00 0.01 0.02 0.08 0.23 0.38 0.58 0.78 0.78 0.59 0.56 0.84 0.92 0.86 0.89 0.82 0.64 0.65 0.52 0.34 0.28 0.30 0.25 0.30 0.35 0.37 0.49 0.47 0.59 0.64 0.71 0.82 0.80 0.68 0.84 1.03 1.09 1.09 1.03 1.02 1.09 1.00 0.84 0.66
0.00 0.00 0.00 0.00 0.00 0.00 0.01 0.02 0.06 0.18 0.57 0.98 1.17 1.10 0.93 0.77 1.00 1.22 1.20 1.36 1.10 0.71 0.59 0.57 0.43 0.39 0.36 0.40 0.43 0.51 0.64 0.94 0.83 0.78 0.90 1.14 1.07 0.86 0.77 0.92 1.17 1.44 1.47 1.36 1.54 1.70 1.34 1.29 1.32
0.00 0.00 0.00 0.00 0.00 0.00 0.01 0.03 0.11 0.21 0.59 0.81 1.00 1.15 1.16 1.10 1.14 1.21 1.19 1.13 1.26 1.08 0.89 0.78 0.70 0.64 0.70 0.74 0.70 0.66 0.74 0.92 0.90 0.97 0.93 1.23 1.27 1.13 1.08 1.16 1.29 1.52 1.72 2.01 2.02 2.14 2.05 1.95 1.77
0.00 0.00 0.00 0.00 0.00 0.01 0.01 0.06 0.15 0.26 0.52 0.55 0.64 0.80 1.02 1.22 1.44 1.52 1.48 1.45 1.38 1.40 1.25 1.19 1.16 1.14 1.18 1.13 1.06 0.90 0.92 0.94 0.98 1.12 1.17 1.30 1.52 1.55 1.60 1.58 1.51 1.47 1.84 2.24 2.40 2.20 2.42 2.47 2.12
0.00 0.00 0.00 0.00 0.01 0.01 0.02 0.07 0.17 0.31 0.45 0.51 0.58 0.76 1.01 1.27 1.40 1.62 1.64 1.65 1.51 1.50 1.56 1.72 1.77 1.79 1.80 1.78 1.69 1.50 1.37 1.39 1.37 1.43 1.59 1.75 1.89 2.05 2.08 1.96 1.84 1.66 1.74 2.02 2.23 2.24 2.46 2.34 2.25
0.00 0.01 0.04 0.04 0.03 0.04 0.08 0.18 0.34 0.47 0.52 0.67 0.78 1.00 1.12 1.39 1.59 1.58 1.52 1.55 1.56 1.65 2.02 2.28 2.41 2.56 2.56 2.52 2.32 2.04 1.88 1.95 2.11 2.14 2.22 2.23 2.30 2.48 2.38 2.13 1.87 1.79 1.85 1.97 1.97 1.99 2.11 1.97 1.90
0.00 0.03 0.10 0.09 0.05 0.06 0.12 0.37 0.51 0.56 0.67 0.84 0.90 1.12 1.36 1.37 1.57 1.59 1.52 1.63 1.89 2.12 2.57 2.88 2.99 3.22 3.30 3.21 2.91 2.52 2.32 2.31 2.38 2.45 2.45 2.45 2.44 2.37 2.31 2.00 1.68 1.77 1.87 1.86 1.82 1.73 1.82 1.80 1.84
0.02 0.06 0.11 0.17 0.09 0.10 0.17 0.46 0.58 0.59 0.78 0.92 1.09 1.08 1.18 1.33 1.60 1.77 1.77 1.83 2.13 2.45 2.99 3.49 3.91 4.13 4.16 3.76 3.12 2.74 2.69 2.65 2.57 2.58 2.46 2.35 2.21 2.11 2.21 1.90 1.74 1.77 1.71 1.61 1.53 1.71 1.88 1.80 1.81
0.02 0.04 0.11 0.20 0.13 0.13 0.24 0.45 0.65 0.72 0.85 1.03 1.08 1.03 1.07 1.20 1.39 1.65 1.82 1.99 2.29 2.56 3.09 3.77 4.37 4.53 4.28 3.60 3.05 2.92 2.80 2.59 2.40 2.15 1.94 1.78 1.77 1.73 1.82 1.62 1.57 1.66 1.61 1.48 1.55 1.70 1.80 1.60 1.66
0.02 0.04 0.12 0.19 0.12 0.14 0.27 0.43 0.65 0.79 0.91 0.97 1.16 1.09 1.16 1.28 1.42 1.72 1.96 2.16 2.51 2.84 3.26 3.78 4.22 4.15 3.84 3.44 3.02 2.74 2.38 2.13 1.88 1.58 1.36 1.25 1.20 1.25 1.41 1.27 1.35 1.42 1.36 1.28 1.30 1.38 1.41 1.24 1.49
0.04 0.07 0.16 0.19 0.12 0.13 0.28 0.48 0.73 0.77 0.74 0.77 0.97 1.04 1.05 1.11 1.28 1.53 1.89 2.08 2.35 2.74 2.97 3.14 2.99 2.66 2.45 2.34 2.18 1.88 1.81 1.78 1.71 1.59 1.38 1.15 1.13 1.11 1.06 1.06 1.07 1.12 1.16 1.06 1.03 1.16 1.14 0.97 1.24
0.06 0.07 0.13 0.18 0.20 0.21 0.31 0.61 0.81 0.79 0.69 0.66 0.69 0.78 0.82 0.92 1.09 1.33 1.71 1.87 1.91 2.16 2.25 2.11 1.75 1.42 1.32 1.29 1.20 1.32 1.50 1.61 1.63 1.64 1.55 1.35 1.27 1.23 1.17 1.08 1.00 0.96 0.98 0.98 0.97 1.04 1.05 0.94 0.98
0.09 0.06 0.07 0.09 0.18 0.40 0.44 0.77 0.97 0.94 0.91 0.75 0.65 0.72 0.73 0.75 0.79 1.05 1.29 1.31 1.37 1.45 1.33 1.20 1.03 0.87 0.77 0.74 0.77 0.84 1.00 1.28 1.48 1.63 1.67 1.67 1.56 1.40 1.28 1.15 0.98 0.84 0.81 0.86 0.79 0.86 0.98 0.99 0.89
0.05 0.04 0.06 0.09 0.14 0.27 0.37 0.59 0.93 1.06 1.19 0.82 0.63 0.64 0.58 0.63 0.76 0.89 0.89 0.82 0.85 0.85 0.79 0.70 0.67 0.65 0.63 0.63 0.72 0.73 0.66 0.70 0.70 0.77 0.92 1.06 1.18 1.13 0.98 0.92 0.86 0.77 0.70 0.70 0.74 0.85 0.94 0.96 0.88
0.06 0.09 0.15 0.23 0.34 0.54 0.49 0.53 0.79 0.90 0.93 0.61 0.51 0.60 0.51 0.47 0.54 0.62 0.62 0.57 0.54 0.54 0.53 0.57 0.60 0.66 0.64 0.66 0.68 0.67 0.63 0.67 0.65 0.66 0.69 0.66 0.69 0.71 0.68 0.67 0.69 0.69 0.67 0.68 0.68 0.74 0.84 0.92 0.96
0.08 0.14 0.45 0.78 1.06 1.05 0.56 0.54 0.70 0.61 0.59 0.59 0.51 0.51 0.48 0.39 0.38 0.34 0.34 0.33 0.33 0.31 0.29 0.38 0.42 0.47 0.46 0.48 0.52 0.55 0.62 0.63 0.58 0.52 0.49 0.47 0.46 0.49 0.53 0.57 0.62 0.63 0.68 0.74 0.80 0.81 0.82 0.89 1.00
0.07 0.11 0.30 0.50 0.65 0.73 0.53 0.74 0.76 0.54 0.51 0.45 0.35 0.30 0.33 0.24 0.20 0.17 0.16 0.15 0.19 0.20 0.19 0.21 0.26 0.26 0.29 0.34 0.43 0.55 0.71 0.75 0.71 0.69 0.56 0.51 0.50 0.48 0.51 0.59 0.66 0.66 0.67 0.68 0.78 0.83 0.90 0.97 1.01
0.08 0.07 0.10 0.15 0.26 0.45 0.59 0.72 0.62 0.43 0.45 0.36 0.24 0.17 0.16 0.13 0.09 0.09 0.10 0.10 0.10 0.11 0.11 0.13 0.15 0.18 0.24 0.30 0.37 0.41 0.45 0.52 0.53 0.54 0.53 0.50 0.57 0.52 0.56 0.64 0.73 0.76 0.77 0.79 0.83 0.85 0.95 1.13 1.20
0.08 0.07 0.07 0.09 0.20 0.32 0.52 0.74 0.69 0.51 0.47 0.37 0.24 0.14 0.09 0.07 0.05 0.04 0.04 0.04 0.05 0.07 0.11 0.14 0.14 0.19 0.31 0.44 0.49 0.38 0.31 0.29 0.36 0.45 0.51 0.53 0.57 0.58 0.61 0.65 0.69 0.74 0.75 0.79 0.84 0.90 1.00 1.16 1.24
0.12 0.10 0.08 0.10 0.11 0.20 0.39 0.52 0.40 0.32 0.29 0.26 0.18 0.12 0.10 0.07 0.04 0.02 0.02 0.03 0.06 0.08 0.12 0.23 0.29 0.36 0.47 0.61 0.68 0.58 0.41 0.33 0.34 0.37 0.37 0.40 0.48 0.58 0.64 0.61 0.55 0.52 0.57 0.70 0.86 0.92 1.01 1.10 1.14
0.12 0.11 0.11 0.15 0.13 0.13 0.19 0.29 0.18 0.15 0.13 0.10 0.08 0.06 0.04 0.02 0.01 0.01 0.01 0.02 0.04 0.06 0.15 0.39 0.65 0.92 0.99 1.06 1.13 0.98 0.60 0.39 0.31 0.26 0.25 0.32 0.44 0.55 0.60 0.57 0.52 0.50 0.56 0.69 0.85 1.00 1.20 1.33 1.30